This is the latest recevied weather packets stored in our database for station/object IV3CLI-10. If no packets are shown the sender has not sent any weather packets the latest 10 day(s).
| Time | Temp. | Humidity | Pressure | Rain* | Wind** | Luminosity | Snow |
|---|---|---|---|---|---|---|---|
| 1777454609 | 20° C | 100% | 1017.8 hPa | - | - | - | - |
| 1777453709 | 20° C | 100% | 1017.8 hPa | - | - | - | - |
| 1777452809 | 21.11° C | 100% | 1017.6 hPa | - | - | - | - |
| 1777451909 | 20.56° C | 100% | 1017.7 hPa | - | - | - | - |
| 1777451009 | 19.44° C | 100% | 1017.6 hPa | - | - | - | - |
| 1777450109 | 19.44° C | 100% | 1017.6 hPa | - | - | - | - |
| 1777449209 | 18.89° C | 100% | 1017.3 hPa | - | - | - | - |
| 1777448309 | 18.33° C | 100% | 1017.5 hPa | - | - | - | - |
| 1777447409 | 18.33° C | 100% | 1017.4 hPa | - | - | - | - |
| 1777446509 | 18.33° C | 100% | 1017.1 hPa | - | - | - | - |
| 1777445609 | 18.33° C | 100% | 1017.1 hPa | - | - | - | - |
| 1777444708 | 18.33° C | 100% | 1017 hPa | - | - | - | - |
| 1777443808 | 17.78° C | 100% | 1016.9 hPa | - | - | - | - |
| 1777442908 | 17.22° C | 100% | 1016.8 hPa | - | - | - | - |
| 1777442008 | 16.67° C | 100% | 1016.8 hPa | - | - | - | - |
| 1777441108 | 16.11° C | 100% | 1016.4 hPa | - | - | - | - |
| 1777440208 | 15.56° C | 100% | 1016.3 hPa | - | - | - | - |
| 1777439308 | 15° C | 100% | 1016.2 hPa | - | - | - | - |
| 1777438408 | 15° C | 100% | 1016.1 hPa | - | - | - | - |
| 1777437508 | 15.56° C | 100% | 1016 hPa | - | - | - | - |
| 1777436608 | 14.44° C | 100% | 1016.1 hPa | - | - | - | - |
| 1777435707 | 14.44° C | 100% | 1016 hPa | - | - | - | - |
| 1777434807 | 14.44° C | 100% | 1015.9 hPa | - | - | - | - |
| 1777433907 | 15° C | 100% | 1015.9 hPa | - | - | - | - |
| 1777433007 | 15° C | 100% | 1015.9 hPa | - | - | - | - |
* Rain since midnight (hover to see other rain measurements)
** Current wind speed in m/s (hover to see current wind gust speed)